Date String (YYYY-MM-DD hh:mm:ss) UTC,Instrument flags,absolute air pressure of the measurement (hPa),sample flow rate (lpm),inlet stack bypass flow (lpm),air temperature of the measurement (°C),ambient temperature measured by the external sensor (°C),aerosol sample conditioner tube jacket temperature (°C),OPC LED temperature (°C),internal box temperature (°C),relative humidity of the measurement (%),span deviation,mass concentration of particles derived from Lorenz-Mie calculation of OPC scattering (μg/m³),mass concentration of particles derived from Lorenz-Mie calculation of OPC scattering (μg/m³),mass concentration of particles derived from Lorenz-Mie calculation of OPC scattering (μg/m³)
DateTimeUTC,F1_M11,P_M11,Q1_M11,Q2_M11,T1_M11,T2_M11,T3_M11,T4_M11,T5_M11,U1_M11,ZSPAN_M11,X0_M11,X2_M11,X1_M11
2023-10-13 10:00:00,SystemResetWarning,0829.3,4.99,000.00,025.9,024.4,000.0,034.4,027.6,14.3,0000.0,0001.93,0001.35,0001.23
2023-10-13 10:01:00,SystemResetWarning,0829.3,5.01,000.00,025.9,024.4,000.0,034.3,027.6,14.4,0000.0,0001.95,0001.41,0001.27
2023-10-13 10:02:00,SystemResetWarning,0829.4,5.01,000.00,025.9,024.4,000.0,034.3,027.6,14.3,0000.0,0002.03,0001.45,0001.29
2023-10-13 10:03:00,SystemResetWarning,0829.4,5.00,000.00,025.9,024.4,000.0,034.3,027.6,14.3,0000.0,0002.19,0001.51,0001.31
2023-10-13 10:04:00,SystemResetWarning,0829.5,4.99,000.00,025.9,024.4,000.0,034.3,027.6,14.3,0000.0,0002.28,0001.56,0001.35
2023-10-13 10:05:00,SystemResetWarning,0829.6,4.99,000.00,025.9,024.4,000.0,034.3,027.6,14.3,0000.0,0002.39,0001.61,0001.36
2023-10-13 10:06:00,SystemResetWarning,0829.6,5.00,000.00,025.9,024.4,000.0,034.3,027.6,14.3,0000.0,0002.36,0001.63,0001.38
2023-10-13 10:07:00,SystemResetWarning,0829.7,4.99,000.00,025.9,024.4,000.0,034.3,027.6,14.2,0000.0,0002.51,0001.67,0001.39
2023-10-13 10:08:00,SystemResetWarning,0829.7,5.00,000.00,025.9,024.4,000.0,034.3,027.6,14.2,0000.0,0002.51,0001.67,0001.39
2023-10-13 10:09:00,SystemResetWarning,0829.6,5.00,000.00,025.9,024.4,000.0,034.3,027.6,14.2,0000.0,0002.59,0001.69,0001.40
2023-10-13 10:10:00,SystemResetWarning,0829.6,5.01,000.00,025.9,024.4,000.0,034.3,027.6,14.2,0000.0,0002.61,0001.71,0001.42
2023-10-13 10:11:00,SystemResetWarning,0829.7,5.01,000.00,025.9,024.4,000.0,034.3,027.6,14.2,0000.0,0002.74,0001.74,0001.42
2023-10-13 10:12:00,SystemResetWarning,0829.7,4.99,000.00,025.9,024.4,000.0,034.3,027.6,14.2,0000.0,0002.73,0001.74,0001.42
2023-10-13 10:13:00,SystemResetWarning,0829.7,5.00,000.00,025.9,024.4,000.0,034.3,027.6,14.2,0000.0,0002.69,0001.72,0001.43
2023-10-13 10:14:00,SystemResetWarning,0829.7,5.00,000.00,025.9,024.4,000.0,034.3,027.6,14.2,0000.0,0002.69,0001.74,0001.45
2023-10-13 10:15:00,SystemResetWarning,0829.7,5.00,000.00,025.9,024.4,000.0,034.3,027.6,14.2,0000.0,0002.72,0001.74,0001.46
2023-10-13 10:16:00,SystemResetWarning,0829.7,4.99,000.00,025.9,024.4,000.0,034.3,027.6,14.2,0000.0,0002.67,0001.73,0001.46
2023-10-13 10:17:00,SystemResetWarning,0829.7,5.00,000.00,025.9,024.4,000.0,034.3,027.6,14.2,0000.0,0002.63,0001.70,0001.45
2023-10-13 10:18:00,SystemResetWarning,0829.7,5.00,000.00,025.9,024.4,000.0,034.3,027.6,14.1,0000.0,0002.55,0001.69,0001.45
2023-10-13 10:19:00,SystemResetWarning,0829.7,5.00,000.00,025.9,024.4,000.0,034.3,027.6,14.1,0000.0,0002.66,0001.72,0001.46
2023-10-13 10:20:00,SystemResetWarning,0829.8,5.00,000.00,025.9,024.4,000.0,034.3,027.6,14.1,0000.0,0002.66,0001.70,0001.45
2023-10-13 10:21:00,SystemResetWarning,0829.8,5.01,000.00,025.9,024.4,000.0,034.3,027.6,14.1,0000.0,0002.74,0001.71,0001.43
2023-10-13 10:22:00,SystemResetWarning,0829.8,5.01,000.00,025.9,024.4,000.0,034.3,027.6,14.1,0000.0,0002.64,0001.67,0001.42
2023-10-13 10:23:00,SystemResetWarning,0829.8,5.00,000.00,025.9,024.4,000.0,034.3,027.6,14.1,0000.0,0003.16,0001.69,0001.40
2023-10-13 10:24:00,SystemResetWarning,0829.8,5.00,000.00,025.9,024.4,000.0,034.3,027.6,14.1,0000.0,0003.43,0001.68,0001.37
2023-10-13 10:25:00,SystemResetWarning,0829.8,4.99,000.00,025.9,024.4,000.0,034.3,027.6,14.1,0000.0,0003.28,0001.61,0001.32
2023-10-13 10:26:00,SystemResetWarning,0829.8,4.99,000.00,025.9,024.3,000.0,034.3,027.6,14.2,0000.0,0003.11,0001.55,0001.29
2023-10-13 10:27:00,SystemResetWarning,0829.8,5.00,000.00,025.9,024.3,000.0,034.3,027.6,14.4,0000.0,0003.02,0001.50,0001.26
2023-10-13 10:28:00,SystemResetWarning,0829.8,4.99,000.00,025.9,024.3,000.0,034.3,027.5,14.6,0000.0,0003.01,0001.48,0001.24
2023-10-13 10:29:00,SystemResetWarning,0829.8,5.00,000.00,025.9,024.3,000.0,034.3,027.5,14.7,0000.0,0002.98,0001.46,0001.22
2023-10-13 10:30:00,SystemResetWarning,0829.8,4.99,000.00,025.8,024.2,000.0,034.3,027.5,14.7,0000.0,0003.61,0001.44,0001.21
2023-10-13 10:31:00,SystemResetWarning,0829.9,4.99,000.00,025.8,024.2,000.0,034.3,027.5,14.7,0000.0,0003.69,0001.46,0001.22
2023-10-13 10:32:00,SystemResetWarning,0829.9,5.00,000.00,025.8,024.2,000.0,034.3,027.5,15.1,0000.0,0003.69,0001.49,0001.25
2023-10-13 10:33:00,SystemResetWarning,0830.0,5.00,000.00,025.8,024.1,000.0,034.3,027.5,15.4,0000.0,0003.87,0001.55,0001.26
2023-10-13 10:34:00,SystemResetWarning,0829.9,5.00,000.00,025.8,024.1,000.0,034.3,027.4,15.6,0000.0,0003.58,0001.57,0001.28
2023-10-13 10:35:00,SystemResetWarning,0829.9,5.00,000.00,025.8,024.1,000.0,034.3,027.4,15.6,0000.0,0003.32,0001.59,0001.33
2023-10-13 10:36:00,SystemResetWarning,0829.9,5.00,000.00,025.8,024.1,000.0,034.3,027.4,15.6,0000.0,0003.43,0001.65,0001.37
2023-10-13 10:37:00,SystemResetWarning,0829.9,4.99,000.00,025.8,024.1,000.0,034.3,027.4,15.5,0000.0,0003.48,0001.68,0001.39
2023-10-13 10:38:00,SystemResetWarning,0830.0,5.00,000.00,025.7,024.1,000.0,034.3,027.3,15.5,0000.0,0003.58,0001.73,0001.42
2023-10-13 10:39:00,SystemResetWarning,0830.0,5.00,000.00,025.7,024.0,000.0,034.3,027.3,15.5,0000.0,0003.63,0001.78,0001.46
2023-10-13 10:40:00,SystemResetWarning,0830.0,5.01,000.00,025.7,024.0,000.0,034.3,027.3,15.4,0000.0,0003.64,0001.81,0001.49
2023-10-13 10:41:00,SystemResetWarning,0830.0,5.00,000.00,025.7,024.0,000.0,034.2,027.3,15.4,0000.0,0002.96,0001.81,0001.51
2023-10-13 10:42:00,SystemResetWarning,0830.0,5.00,000.00,025.7,024.0,000.0,034.2,027.3,15.3,0000.0,0002.76,0001.81,0001.52
2023-10-13 10:43:00,SystemResetWarning,0830.0,5.00,000.00,025.7,024.0,000.0,034.2,027.3,15.3,0000.0,0002.76,0001.82,0001.53
2023-10-13 10:44:00,SystemResetWarning,0830.0,5.00,000.00,025.7,024.0,000.0,034.2,027.3,15.2,0000.0,0002.65,0001.83,0001.57
2023-10-13 10:45:00,SystemResetWarning,0830.0,4.99,000.00,025.7,023.9,000.0,034.2,027.3,15.1,0000.0,0002.87,0001.84,0001.59
2023-10-13 10:46:00,SystemResetWarning,0830.0,4.99,000.00,025.6,023.9,000.0,034.2,027.3,15.1,0000.0,0003.17,0001.88,0001.61
2023-10-13 10:47:00,SystemResetWarning,0830.0,5.00,000.00,025.6,023.9,000.0,034.2,027.3,15.1,0000.0,0003.42,0001.94,0001.63
2023-10-13 10:48:00,SystemResetWarning,0830.0,5.01,000.00,025.6,023.9,000.0,034.2,027.2,15.1,0000.0,0003.68,0002.02,0001.66
2023-10-13 10:49:00,SystemResetWarning,0830.0,5.01,000.00,025.6,023.9,000.0,034.2,027.2,15.1,0000.0,0003.68,0002.04,0001.69
2023-10-13 10:50:00,SystemResetWarning,0830.0,5.00,000.00,025.6,023.9,000.0,034.1,027.2,15.2,0000.0,0003.80,0002.08,0001.71
2023-10-13 10:51:00,SystemResetWarning,0830.0,5.00,000.00,025.6,023.9,000.0,034.1,027.2,15.3,0000.0,0003.94,0002.14,0001.73
2023-10-13 10:52:00,SystemResetWarning,0830.1,4.99,000.00,025.6,023.9,000.0,034.1,027.2,15.2,0000.0,0004.06,0002.20,0001.74
2023-10-13 10:53:00,SystemResetWarning,0830.0,5.00,000.00,025.5,023.8,000.0,034.1,027.1,15.2,0000.0,0004.07,0002.21,0001.76
2023-10-13 10:54:00,SystemResetWarning,0830.0,5.00,000.00,025.5,023.8,000.0,034.1,027.1,15.2,0000.0,0004.01,0002.18,0001.74
2023-10-13 10:55:00,SystemResetWarning,0830.0,5.01,000.00,025.5,023.8,000.0,034.1,027.1,15.2,0000.0,0003.94,0002.14,0001.72
2023-10-13 10:56:00,SystemResetWarning,0830.1,5.00,000.00,025.5,023.8,000.0,034.1,027.1,15.1,0000.0,0003.68,0002.13,0001.73
2023-10-13 10:57:00,SystemResetWarning,0830.1,4.99,000.00,025.5,023.7,000.0,034.0,027.1,15.2,0000.0,0003.27,0002.11,0001.73
2023-10-13 10:58:00,SystemResetWarning,0830.1,5.00,000.00,025.4,023.7,000.0,034.0,027.0,15.2,0000.0,0003.26,0002.08,0001.73
2023-10-13 10:59:00,SystemResetWarning,0830.0,5.00,000.00,025.4,023.7,000.0,034.0,027.0,15.2,0000.0,0004.10,0002.06,0001.74
